START_TIME,STEP,MOV.,M29,t_acc.,H22,t_acc.,H26,t_acc.,H30,t_acc.
1979-07-02 12:00:32.790 ,0,0,0.,24.0,0.,24.0,0.,24.0,0.,24.0
1979-07-02 12:00:56.790 ,1,1,0.,24.0,0.,24.0,0.,24.0,0.,24.0
1979-07-02 12:01:20.790 ,1,0,0.,24.0,0.,24.0,0.,24.0,0.,24.0
1979-07-02 12:01:44.790 ,2,1,0.,24.0,0.,24.0,0.,24.0,0.,24.0
1979-07-02 12:02:08.790 ,2,0,0.,24.0,0.,24.0,0.,24.0,0.,24.0
1979-07-02 12:02:32.790 ,3,1,0.,24.0,0.,24.0,0.,24.0,0.,24.0
1979-07-02 12:02:56.790 ,3,0,0.,24.0,0.,24.0,0.,24.0,0.,24.0
1979-07-02 12:03:20.790 ,4,1,0.,24.0,0.,24.0,0.,24.0,0.,24.0
1979-07-02 12:03:44.790 ,4,0,0.,24.0,0.,24.0,0.,24.0,0.,24.0
1979-07-02 12:04:08.790 ,5,1,0.,24.0,0.,24.0,0.,24.0,0.,24.0
1979-07-02 12:04:32.790 ,5,0,0.,24.0,0.,24.0,0.,24.0,0.,24.0
1979-07-02 12:04:56.790 ,6,1,0.,24.0,0.,24.0,0.,24.0,0.,24.0
1979-07-02 12:05:20.790 ,6,0,0.,24.0,0.,24.0,0.,24.0,0.,24.0
1979-07-02 12:05:44.790 ,7,1,0.,24.0,0.,24.0,0.,24.0,0.,24.0
1979-07-02 12:06:08.790 ,0,0,0.,24.0,0.,24.0,0.,24.0,0.,24.0
1979-07-02 12:06:32.790 ,7,1,0.,24.0,0.,24.0,0.,24.0,0.,24.0
1979-07-02 12:06:56.790 ,7,0,0.,24.0,0.,24.0,0.,24.0,0.,24.0
1979-07-02 12:07:20.790 ,6,1,0.,24.0,0.,24.0,0.,24.0,0.,24.0
1979-07-02 12:07:44.790 ,6,0,0.,24.0,0.,24.0,0.,24.0,0.,24.0
1979-07-02 12:08:08.790 ,5,1,0.,24.0,0.,24.0,0.,24.0,0.,24.0
1979-07-02 12:08:32.790 ,5,0,0.,24.0,0.,24.0,0.,24.0,0.,24.0
1979-07-02 12:08:56.790 ,4,1,0.,24.0,0.,24.0,0.,24.0,0.,24.0
1979-07-02 12:09:20.790 ,4,0,0.,24.0,0.,24.0,0.,24.0,0.,24.0
1979-07-02 12:09:44.790 ,3,1,0.,24.0,0.,24.0,0.,24.0,0.,24.0
1979-07-02 12:10:08.790 ,3,0,0.,24.0,0.,24.0,0.,24.0,0.,24.0
1979-07-02 12:10:32.790 ,2,1,0.,24.0,0.,24.0,0.,24.0,0.,24.0
1979-07-02 12:10:56.790 ,2,0,0.,24.0,0.,24.0,0.,24.0,0.,24.0
1979-07-02 12:11:20.790 ,1,1,0.,24.0,0.,24.0,0.,24.0,0.,24.0
1979-07-02 12:11:44.790 ,1,0,0.,24.0,0.,24.0,0.,24.0,0.,24.0
1979-07-02 12:12:08.790 ,0,1,0.,24.0,0.,24.0,0.,24.0,0.,24.0
1979-07-02 12:12:32.790 ,0,0,0.,24.0,0.,24.0,0.,24.0,0.,24.0
1979-07-02 12:12:56.790 ,0,1,0.,24.0,0.,24.0,0.,24.0,0.,24.0
1979-07-02 12:13:20.790 ,0,0,0.,24.0,0.,24.0,0.,24.0,0.,24.0
1979-07-02 12:13:44.790 ,1,1,0.,24.0,0.,24.0,0.,24.0,0.,24.0
1979-07-02 12:14:08.790 ,1,0,0.,24.0,0.,24.0,0.,24.0,0.,24.0
1979-07-02 12:14:32.790 ,2,1,0.,24.0,0.,24.0,0.,24.0,0.,24.0
1979-07-02 12:14:56.790 ,2,0,0.,24.0,0.,24.0,0.,24.0,0.,24.0
1979-07-02 12:15:20.790 ,3,1,0.,24.0,0.,24.0,0.,24.0,0.,24.0
1979-07-02 12:15:44.790 ,3,0,0.,24.0,0.,24.0,0.,24.0,0.,24.0
1979-07-02 12:16:08.790 ,4,1,0.,24.0,0.,24.0,0.,24.0,0.,24.0
1979-07-02 12:16:32.790 ,4,0,0.,24.0,0.,24.0,0.,24.0,0.,24.0
1979-07-02 12:16:56.790 ,5,1,1.,24.0,0.,24.0,0.,24.0,0.,24.0
1979-07-02 12:17:20.790 ,5,0,0.,24.0,0.,24.0,0.,24.0,0.,24.0
1979-07-02 12:17:44.790 ,6,1,0.,24.0,0.,24.0,0.,24.0,0.,24.0
1979-07-02 12:18:08.790 ,6,0,1.,24.0,0.,24.0,0.,24.0,0.,24.0
1979-07-02 12:18:32.790 ,7,0,0.,24.0,0.,24.0,0.,24.0,0.,24.0
1979-07-02 12:18:56.790 ,7,0,0.,24.0,0.,24.0,0.,24.0,0.,24.0
1979-07-02 12:19:20.790 ,5,1,0.,24.0,0.,24.0,0.,24.0,0.,24.0
1979-07-02 12:19:44.790 ,1,1,0.,24.0,0.,24.0,0.,24.0,0.,24.0
1979-07-02 12:20:08.790 ,2,1,0.,24.0,0.,24.0,0.,24.0,0.,24.0
1979-07-02 12:20:32.790 ,6,1,0.,24.0,0.,24.0,0.,24.0,0.,24.0
1979-07-02 12:20:56.790 ,5,1,0.,24.0,0.,24.0,0.,24.0,0.,24.0
1979-07-02 12:21:20.790 ,1,1,0.,24.0,0.,24.0,0.,24.0,0.,24.0
1979-07-02 12:21:44.790 ,2,1,0.,24.0,0.,24.0,0.,24.0,0.,24.0
1979-07-02 12:22:08.790 ,6,1,0.,24.0,0.,24.0,0.,24.0,0.,24.0
1979-07-02 12:22:32.790 ,5,1,0.,24.0,0.,24.0,0.,24.0,0.,24.0
1979-07-02 12:22:56.790 ,1,1,0.,24.0,0.,24.0,0.,24.0,0.,24.0
1979-07-02 12:23:20.790 ,2,1,0.,24.0,0.,24.0,0.,24.0,0.,24.0
1979-07-02 12:23:44.790 ,6,1,0.,24.0,0.,24.0,0.,24.0,0.,24.0
1979-07-02 12:24:08.790 ,5,1,0.,24.0,0.,24.0,0.,24.0,0.,24.0
1979-07-02 12:24:32.790 ,0,0,0.,24.0,0.,24.0,0.,24.0,0.,24.0
1979-07-02 12:24:56.790 ,2,1,0.,24.0,0.,24.0,0.,24.0,0.,24.0
1979-07-02 12:25:20.790 ,6,1,0.,24.0,0.,24.0,0.,24.0,0.,24.0
1979-07-02 12:25:44.790 ,5,1,0.,24.0,0.,24.0,0.,24.0,0.,24.0
1979-07-02 12:26:08.790 ,1,1,0.,24.0,0.,24.0,0.,24.0,0.,24.0
1979-07-02 12:26:32.790 ,2,1,0.,24.0,0.,24.0,0.,24.0,0.,24.0
1979-07-02 12:26:56.790 ,6,1,0.,24.0,0.,24.0,0.,24.0,0.,24.0
1979-07-02 12:27:20.790 ,5,1,0.,24.0,0.,24.0,0.,24.0,0.,24.0
1979-07-02 12:27:44.790 ,1,1,0.,24.0,0.,24.0,0.,24.0,0.,24.0
1979-07-02 12:28:08.790 ,2,1,0.,24.0,0.,24.0,0.,24.0,0.,24.0
1979-07-02 12:28:32.790 ,6,1,0.,24.0,0.,24.0,0.,24.0,0.,24.0
1979-07-02 12:28:56.790 ,5,1,0.,24.0,0.,24.0,0.,24.0,0.,24.0
1979-07-02 12:29:20.790 ,1,1,0.,24.0,0.,24.0,0.,24.0,0.,24.0
1979-07-02 12:29:44.790 ,0,0,0.,24.0,0.,24.0,0.,24.0,0.,24.0
1979-07-02 12:30:08.790 ,0,0,0.,24.0,0.,24.0,0.,24.0,0.,24.0
1979-07-02 12:30:32.790 ,5,1,0.,24.0,0.,24.0,0.,24.0,0.,24.0
1979-07-02 12:30:56.790 ,5,0,0.,24.0,0.,24.0,0.,24.0,0.,24.0
1979-07-02 12:31:20.790 ,4,1,0.,24.0,0.,24.0,0.,24.0,0.,24.0
1979-07-02 12:31:44.790 ,4,0,0.,24.0,0.,24.0,0.,24.0,0.,24.0
1979-07-02 12:32:08.790 ,3,1,0.,24.0,0.,24.0,0.,24.0,0.,24.0
1979-07-02 12:32:32.790 ,3,0,0.,24.0,0.,24.0,0.,24.0,0.,24.0
1979-07-02 12:32:56.790 ,2,1,0.,24.0,0.,24.0,0.,24.0,0.,24.0
1979-07-02 12:33:20.790 ,2,0,0.,24.0,0.,24.0,0.,24.0,0.,24.0
1979-07-02 12:33:44.790 ,1,1,0.,24.0,0.,24.0,0.,24.0,0.,24.0
1979-07-02 12:34:08.790 ,1,0,0.,24.0,0.,24.0,0.,24.0,0.,24.0
1979-07-02 12:34:32.790 ,0,1,0.,24.0,0.,24.0,0.,24.0,0.,24.0
1979-07-02 12:34:56.790 ,0,0,0.,24.0,0.,24.0,0.,24.0,0.,24.0
1979-07-02 12:35:20.790 ,0,1,0.,24.0,0.,24.0,0.,24.0,0.,24.0
1979-07-02 12:35:44.790 ,0,0,0.,24.0,0.,24.0,0.,24.0,0.,24.0
1979-07-02 12:36:08.790 ,1,1,0.,24.0,0.,24.0,0.,24.0,0.,24.0
1979-07-02 12:36:32.790 ,1,0,0.,24.0,0.,24.0,0.,24.0,0.,24.0
1979-07-02 12:36:56.790 ,2,1,0.,24.0,0.,24.0,0.,24.0,0.,24.0
1979-07-02 12:37:20.790 ,2,0,0.,24.0,0.,24.0,0.,24.0,0.,24.0
1979-07-02 12:37:44.790 ,3,1,0.,24.0,0.,24.0,0.,24.0,0.,24.0
1979-07-02 12:38:08.790 ,3,0,0.,24.0,0.,24.0,0.,24.0,0.,24.0
1979-07-02 12:38:32.790 ,4,1,0.,24.0,0.,24.0,0.,24.0,0.,24.0
1979-07-02 12:38:56.790 ,4,0,0.,24.0,0.,24.0,0.,24.0,0.,24.0
1979-07-02 12:39:20.790 ,5,1,0.,24.0,0.,24.0,0.,24.0,0.,24.0
1979-07-02 12:39:44.790 ,5,0,0.,24.0,0.,24.0,0.,24.0,0.,24.0
1979-07-02 12:40:08.790 ,6,1,0.,24.0,0.,24.0,0.,24.0,0.,24.0
1979-07-02 12:40:32.790 ,6,0,0.,24.0,0.,24.0,0.,24.0,0.,24.0
1979-07-02 12:40:56.790 ,7,1,0.,24.0,0.,24.0,0.,24.0,0.,24.0
1979-07-02 12:41:20.790 ,7,0,0.,24.0,0.,24.0,0.,24.0,0.,24.0
1979-07-02 12:41:44.790 ,7,1,0.,24.0,0.,24.0,0.,24.0,0.,24.0
1979-07-02 12:42:08.790 ,7,0,0.,24.0,0.,24.0,0.,24.0,0.,24.0
1979-07-02 12:42:32.790 ,6,1,0.,24.0,0.,24.0,0.,24.0,0.,24.0
1979-07-02 12:42:56.790 ,6,0,0.,24.0,0.,24.0,0.,24.0,0.,24.0
1979-07-02 12:43:20.790 ,5,1,0.,24.0,0.,24.0,0.,24.0,0.,24.0
1979-07-02 12:43:44.790 ,5,0,0.,24.0,0.,24.0,0.,24.0,0.,24.0
1979-07-02 12:44:08.790 ,4,1,0.,24.0,0.,24.0,0.,24.0,0.,24.0
1979-07-02 12:44:32.790 ,4,0,0.,24.0,0.,24.0,0.,24.0,0.,24.0
1979-07-02 12:44:56.790 ,3,1,0.,24.0,0.,24.0,0.,24.0,0.,24.0
1979-07-02 12:45:20.790 ,3,0,0.,24.0,0.,24.0,0.,24.0,0.,24.0
1979-07-02 12:45:44.790 ,2,1,0.,24.0,0.,24.0,0.,24.0,0.,24.0
1979-07-02 12:46:08.790 ,2,0,0.,24.0,0.,24.0,0.,24.0,0.,24.0
1979-07-02 12:46:32.790 ,1,1,0.,24.0,0.,24.0,0.,24.0,0.,24.0
1979-07-02 12:46:56.790 ,1,0,0.,24.0,0.,24.0,0.,24.0,0.,24.0
1979-07-02 12:47:20.790 ,0,1,0.,24.0,0.,24.0,0.,24.0,0.,24.0
1979-07-02 12:47:44.790 ,0,0,0.,24.0,0.,24.0,0.,24.0,0.,24.0
1979-07-02 12:48:08.790 ,0,1,0.,24.0,0.,24.0,0.,24.0,0.,24.0
1979-07-02 12:48:32.790 ,0,0,0.,24.0,0.,24.0,0.,24.0,0.,24.0
1979-07-02 12:48:56.790 ,1,1,0.,24.0,0.,24.0,0.,24.0,0.,24.0
1979-07-02 12:49:20.790 ,1,0,0.,24.0,0.,24.0,0.,24.0,0.,24.0
1979-07-02 12:49:44.790 ,2,1,0.,24.0,0.,24.0,0.,24.0,0.,24.0
1979-07-02 12:50:08.790 ,2,0,0.,24.0,0.,24.0,0.,24.0,0.,24.0
1979-07-02 12:50:32.790 ,3,1,0.,24.0,0.,24.0,0.,24.0,0.,24.0
1979-07-02 12:50:56.790 ,3,0,0.,24.0,0.,24.0,0.,24.0,0.,24.0
1979-07-02 12:51:20.790 ,4,1,0.,24.0,0.,24.0,0.,24.0,0.,24.0
1979-07-02 12:51:44.790 ,4,0,0.,24.0,0.,24.0,0.,24.0,0.,24.0
1979-07-02 12:52:08.790 ,5,1,0.,24.0,0.,24.0,0.,24.0,0.,24.0
1979-07-02 12:52:32.790 ,5,0,0.,24.0,0.,24.0,0.,24.0,0.,24.0
1979-07-02 12:52:56.790 ,6,1,0.,24.0,0.,24.0,0.,24.0,0.,24.0
1979-07-02 12:53:20.790 ,6,0,0.,24.0,0.,24.0,0.,24.0,0.,24.0
1979-07-02 12:53:44.790 ,7,1,1.,24.0,0.,24.0,0.,24.0,0.,24.0
1979-07-02 12:54:08.790 ,7,0,0.,24.0,0.,24.0,0.,24.0,0.,24.0
1979-07-02 12:54:32.790 ,7,1,0.,24.0,0.,24.0,0.,24.0,0.,24.0
1979-07-02 12:54:56.790 ,7,0,0.,24.0,0.,24.0,0.,24.0,0.,24.0
1979-07-02 12:55:20.790 ,6,1,0.,24.0,0.,24.0,0.,24.0,0.,24.0
1979-07-02 12:55:44.790 ,6,0,0.,24.0,0.,24.0,0.,24.0,0.,24.0
1979-07-02 12:56:08.790 ,5,1,0.,24.0,0.,24.0,0.,24.0,0.,24.0
1979-07-02 12:56:32.790 ,5,0,0.,24.0,0.,24.0,0.,24.0,0.,24.0
1979-07-02 12:56:56.790 ,4,1,0.,24.0,0.,24.0,0.,24.0,0.,24.0
1979-07-02 12:57:20.790 ,4,0,0.,24.0,0.,24.0,0.,24.0,0.,24.0
1979-07-02 12:57:44.790 ,3,1,0.,24.0,0.,24.0,0.,24.0,0.,24.0
1979-07-02 12:58:08.790 ,3,0,0.,24.0,0.,24.0,0.,24.0,0.,24.0
1979-07-02 12:58:32.790 ,2,1,0.,24.0,0.,24.0,0.,24.0,0.,24.0
1979-07-02 12:58:56.790 ,2,0,0.,24.0,0.,24.0,0.,24.0,0.,24.0
1979-07-02 12:59:20.790 ,1,1,0.,24.0,0.,24.0,0.,24.0,0.,24.0
1979-07-02 12:59:44.790 ,1,0,0.,24.0,0.,24.0,0.,24.0,0.,24.0
1979-07-02 13:00:08.790 ,0,1,0.,24.0,0.,24.0,0.,24.0,0.,24.0
1979-07-02 13:00:32.790 ,0,0,0.,24.0,0.,24.0,0.,24.0,0.,24.0
1979-07-02 13:00:56.790 ,0,1,0.,24.0,0.,24.0,0.,24.0,0.,24.0
1979-07-02 13:01:20.790 ,0,0,0.,24.0,0.,24.0,0.,24.0,0.,24.0
1979-07-02 13:01:44.790 ,1,1,0.,24.0,0.,24.0,0.,24.0,0.,24.0
1979-07-02 13:02:08.790 ,1,0,0.,24.0,0.,24.0,0.,24.0,0.,24.0
1979-07-02 13:02:32.790 ,2,1,0.,24.0,0.,24.0,0.,24.0,0.,24.0
1979-07-02 13:02:56.790 ,2,0,0.,24.0,0.,24.0,0.,24.0,0.,24.0
1979-07-02 13:03:20.790 ,3,1,0.,24.0,0.,24.0,0.,24.0,0.,24.0
1979-07-02 13:03:44.790 ,3,0,0.,24.0,0.,24.0,0.,24.0,0.,24.0
1979-07-02 13:04:08.790 ,4,1,0.,24.0,0.,24.0,0.,24.0,0.,24.0
1979-07-02 13:04:32.790 ,4,0,0.,24.0,0.,24.0,0.,24.0,0.,24.0
1979-07-02 13:04:56.790 ,5,1,0.,24.0,0.,24.0,0.,24.0,0.,24.0
1979-07-02 13:05:20.790 ,5,0,0.,24.0,0.,24.0,0.,24.0,0.,24.0
1979-07-02 13:05:44.790 ,6,1,0.,24.0,0.,24.0,0.,24.0,0.,24.0
1979-07-02 13:06:08.790 ,6,0,0.,24.0,0.,24.0,0.,24.0,0.,24.0
1979-07-02 13:06:32.790 ,7,0,0.,24.0,0.,24.0,0.,24.0,0.,24.0
1979-07-02 13:06:56.790 ,7,0,0.,24.0,0.,24.0,0.,24.0,0.,24.0
1979-07-02 13:07:20.790 ,5,1,0.,24.0,0.,24.0,0.,24.0,0.,24.0
1979-07-02 13:07:44.790 ,1,1,0.,24.0,0.,24.0,0.,24.0,0.,24.0
1979-07-02 13:08:08.790 ,2,1,0.,24.0,0.,24.0,0.,24.0,0.,24.0
1979-07-02 13:08:32.790 ,6,1,0.,24.0,0.,24.0,0.,24.0,0.,24.0
1979-07-02 13:08:56.790 ,5,1,0.,24.0,0.,24.0,0.,24.0,0.,24.0
1979-07-02 13:09:20.790 ,1,1,0.,24.0,0.,24.0,0.,24.0,0.,24.0
1979-07-02 13:09:44.790 ,2,1,0.,24.0,0.,24.0,0.,24.0,0.,24.0
1979-07-02 13:10:08.790 ,6,1,0.,24.0,0.,24.0,0.,24.0,0.,24.0
1979-07-02 13:10:32.790 ,5,1,0.,24.0,0.,24.0,0.,24.0,0.,24.0
1979-07-02 13:10:56.790 ,1,1,0.,24.0,0.,24.0,0.,24.0,0.,24.0
1979-07-02 13:11:20.790 ,2,1,0.,24.0,0.,24.0,0.,24.0,0.,24.0
1979-07-02 13:11:44.790 ,6,1,0.,24.0,0.,24.0,0.,24.0,0.,24.0
1979-07-02 13:12:08.790 ,5,1,0.,24.0,0.,24.0,0.,24.0,0.,24.0
1979-07-02 13:12:32.790 ,1,1,0.,24.0,0.,24.0,0.,24.0,0.,24.0
1979-07-02 13:12:56.790 ,2,1,0.,24.0,0.,24.0,0.,24.0,0.,24.0
1979-07-02 13:13:20.790 ,6,1,0.,24.0,0.,24.0,0.,24.0,0.,24.0
1979-07-02 13:13:44.790 ,5,1,0.,24.0,0.,24.0,0.,24.0,0.,24.0
1979-07-02 13:14:08.790 ,1,1,0.,24.0,0.,24.0,0.,24.0,0.,24.0
1979-07-02 13:14:32.790 ,2,1,0.,24.0,0.,24.0,0.,24.0,0.,24.0
1979-07-02 13:14:56.790 ,6,1,0.,24.0,0.,24.0,0.,24.0,0.,24.0
1979-07-02 13:15:20.790 ,5,1,0.,24.0,0.,24.0,0.,24.0,0.,24.0
1979-07-02 13:15:44.790 ,1,1,0.,24.0,0.,24.0,0.,24.0,0.,24.0
1979-07-02 13:16:08.790 ,2,1,0.,24.0,0.,24.0,0.,24.0,0.,24.0
1979-07-02 13:16:32.790 ,0,0,2.,24.0,0.,24.0,0.,24.0,0.,24.0
1979-07-02 13:16:57.390 ,5,1,0.,24.0,0.,24.0,0.,24.0,0.,24.0
1979-07-02 13:17:20.790 ,1,1,0.,24.0,0.,24.0,0.,24.0,0.,24.0
1979-07-02 13:17:44.790 ,0,0,0.,24.0,0.,24.0,0.,24.0,0.,24.0
1979-07-02 13:18:08.790 ,0,0,0.,24.0,0.,24.0,0.,24.0,0.,24.0
1979-07-02 13:18:32.790 ,5,1,0.,24.0,0.,24.0,0.,24.0,0.,24.0
1979-07-02 13:18:56.790 ,5,0,0.,24.0,0.,24.0,0.,24.0,0.,24.0
1979-07-02 13:19:20.790 ,4,1,0.,24.0,0.,24.0,0.,24.0,0.,24.0
1979-07-02 13:19:44.790 ,4,0,0.,24.0,0.,24.0,0.,24.0,0.,24.0
1979-07-02 13:20:08.790 ,3,1,0.,24.0,0.,24.0,0.,24.0,0.,24.0
1979-07-02 13:20:32.790 ,3,0,0.,24.0,0.,24.0,0.,24.0,0.,24.0
1979-07-02 13:20:56.790 ,2,1,0.,24.0,0.,24.0,0.,24.0,0.,24.0
1979-07-02 13:21:20.790 ,2,0,0.,24.0,0.,24.0,0.,24.0,1.,24.0
1979-07-02 13:21:44.790 ,1,1,0.,24.0,0.,24.0,0.,24.0,0.,24.0
1979-07-02 13:22:08.790 ,1,0,0.,24.0,0.,24.0,0.,24.0,0.,24.0
1979-07-02 13:22:32.790 ,0,1,0.,24.0,0.,24.0,0.,24.0,0.,24.0
1979-07-02 13:22:56.790 ,0,0,0.,24.0,0.,24.0,0.,24.0,0.,24.0
1979-07-02 13:23:20.790 ,0,1,0.,24.0,0.,24.0,0.,24.0,0.,24.0
1979-07-02 13:23:44.790 ,0,0,0.,24.0,0.,24.0,0.,24.0,0.,24.0
1979-07-02 13:24:08.790 ,1,1,0.,24.0,0.,24.0,0.,24.0,0.,24.0
1979-07-02 13:24:32.790 ,1,0,0.,24.0,0.,24.0,0.,24.0,0.,24.0
1979-07-02 13:24:56.790 ,2,1,0.,24.0,0.,24.0,0.,24.0,0.,24.0
1979-07-02 13:25:20.790 ,2,0,0.,24.0,0.,24.0,0.,24.0,0.,24.0
1979-07-02 13:25:44.790 ,3,1,0.,24.0,0.,24.0,0.,24.0,0.,24.0
1979-07-02 13:26:08.790 ,3,0,0.,24.0,0.,24.0,0.,24.0,0.,24.0
1979-07-02 13:26:32.790 ,4,1,0.,24.0,0.,24.0,0.,24.0,0.,24.0
1979-07-02 13:26:56.790 ,4,0,0.,24.0,0.,24.0,0.,24.0,0.,24.0
1979-07-02 13:27:20.790 ,5,1,0.,24.0,0.,24.0,0.,24.0,0.,24.0
1979-07-02 13:27:44.790 ,5,0,0.,24.0,0.,24.0,0.,24.0,0.,24.0
1979-07-02 13:28:08.790 ,6,1,0.,24.0,0.,24.0,0.,24.0,0.,24.0
1979-07-02 13:28:32.790 ,6,0,0.,24.0,0.,24.0,0.,24.0,0.,24.0
1979-07-02 13:28:56.790 ,7,1,0.,24.0,0.,24.0,0.,24.0,0.,24.0
1979-07-02 13:29:20.790 ,7,0,0.,24.0,0.,24.0,0.,24.0,0.,24.0
1979-07-02 13:29:44.790 ,7,1,0.,24.0,0.,24.0,0.,24.0,0.,24.0
1979-07-02 13:30:08.790 ,7,0,0.,24.0,0.,24.0,0.,24.0,0.,24.0
1979-07-02 13:30:32.790 ,6,1,1.,24.0,0.,24.0,0.,24.0,0.,24.0
1979-07-02 13:30:56.790 ,6,0,0.,24.0,0.,24.0,0.,24.0,0.,24.0
1979-07-02 13:31:20.790 ,5,1,0.,24.0,0.,24.0,0.,24.0,0.,24.0
1979-07-02 13:31:44.790 ,5,0,0.,24.0,0.,24.0,0.,24.0,0.,24.0
1979-07-02 13:32:08.790 ,4,1,0.,24.0,0.,24.0,0.,24.0,0.,24.0
1979-07-02 13:32:32.790 ,4,0,0.,24.0,0.,24.0,0.,24.0,0.,24.0
1979-07-02 13:32:56.790 ,3,1,0.,24.0,0.,24.0,0.,24.0,0.,24.0
1979-07-02 13:33:20.790 ,3,0,0.,24.0,0.,24.0,0.,24.0,0.,24.0
1979-07-02 13:33:44.790 ,2,1,0.,24.0,0.,24.0,0.,24.0,0.,24.0
1979-07-02 13:34:08.790 ,2,0,0.,24.0,0.,24.0,0.,24.0,0.,24.0
1979-07-02 13:34:32.790 ,1,1,0.,24.0,0.,24.0,0.,24.0,0.,24.0
1979-07-02 13:34:56.790 ,1,0,0.,24.0,0.,24.0,0.,24.0,0.,24.0
1979-07-02 13:35:20.790 ,0,1,0.,24.0,0.,24.0,0.,24.0,0.,24.0
1979-07-02 13:35:44.790 ,0,0,0.,24.0,0.,24.0,0.,24.0,0.,24.0
1979-07-02 13:36:08.790 ,0,1,0.,24.0,0.,24.0,0.,24.0,0.,24.0
1979-07-02 13:36:32.790 ,0,0,0.,24.0,0.,24.0,0.,24.0,0.,24.0
1979-07-02 13:36:56.790 ,1,1,0.,24.0,0.,24.0,0.,24.0,0.,24.0
1979-07-02 13:37:20.790 ,1,0,0.,24.0,0.,24.0,0.,24.0,0.,24.0
1979-07-02 13:37:44.790 ,2,1,0.,24.0,0.,24.0,0.,24.0,0.,24.0
1979-07-02 13:38:08.790 ,2,0,0.,24.0,0.,24.0,0.,24.0,0.,24.0
1979-07-02 13:38:32.790 ,3,1,0.,24.0,0.,24.0,0.,24.0,0.,24.0
1979-07-02 13:38:56.790 ,3,0,0.,24.0,0.,24.0,0.,24.0,0.,24.0
1979-07-02 13:39:20.790 ,4,1,0.,24.0,0.,24.0,0.,24.0,0.,24.0
1979-07-02 13:39:44.790 ,4,0,0.,24.0,0.,24.0,0.,24.0,0.,24.0
1979-07-02 13:40:08.790 ,5,1,0.,24.0,0.,24.0,0.,24.0,0.,24.0
1979-07-02 13:40:32.790 ,5,0,0.,24.0,0.,24.0,0.,24.0,0.,24.0
1979-07-02 13:40:56.790 ,0,0,0.,24.0,0.,24.0,0.,24.0,0.,24.0
1979-07-02 13:41:20.790 ,0,0,,0,,0,,0,,0
1979-07-02 13:41:44.790 ,7,1,0.,24.0,0.,24.0,0.,24.0,0.,24.0
1979-07-02 13:42:08.790 ,7,0,0.,24.0,0.,24.0,0.,24.0,0.,24.0
1979-07-02 13:42:32.790 ,7,1,0.,24.0,0.,24.0,0.,24.0,0.,24.0
1979-07-02 13:42:56.790 ,7,0,0.,24.0,0.,24.0,0.,24.0,0.,24.0
1979-07-02 13:43:20.790 ,6,1,0.,24.0,0.,24.0,0.,24.0,0.,24.0
1979-07-02 13:43:44.790 ,6,0,1.,24.0,0.,24.0,0.,24.0,0.,24.0
1979-07-02 13:44:08.790 ,5,1,0.,24.0,0.,24.0,0.,24.0,0.,24.0
1979-07-02 13:44:32.790 ,5,0,1.,24.0,0.,24.0,0.,24.0,0.,24.0
1979-07-02 13:44:56.790 ,4,1,0.,24.0,0.,24.0,0.,24.0,0.,24.0
1979-07-02 13:45:20.790 ,4,0,0.,24.0,0.,24.0,0.,24.0,0.,24.0
1979-07-02 13:45:44.790 ,3,1,0.,24.0,0.,24.0,0.,24.0,0.,24.0
1979-07-02 13:46:08.790 ,3,0,0.,24.0,0.,24.0,0.,24.0,0.,24.0
1979-07-02 13:46:32.790 ,2,1,0.,24.0,0.,24.0,0.,24.0,0.,24.0
1979-07-02 13:46:56.790 ,2,0,0.,24.0,0.,24.0,0.,24.0,0.,24.0
1979-07-02 13:47:20.790 ,1,1,0.,24.0,0.,24.0,0.,24.0,0.,24.0
1979-07-02 13:47:44.790 ,1,0,0.,24.0,0.,24.0,0.,24.0,0.,24.0
1979-07-02 13:48:08.790 ,0,1,0.,24.0,0.,24.0,0.,24.0,0.,24.0
1979-07-02 13:48:32.790 ,0,0,0.,24.0,0.,24.0,0.,24.0,0.,24.0
1979-07-02 13:48:56.790 ,0,1,0.,24.0,0.,24.0,0.,24.0,0.,24.0
1979-07-02 13:49:20.790 ,0,0,0.,24.0,0.,24.0,0.,24.0,0.,24.0
1979-07-02 13:49:44.790 ,1,1,0.,24.0,0.,24.0,0.,24.0,0.,24.0
1979-07-02 13:50:08.790 ,1,0,0.,24.0,0.,24.0,0.,24.0,0.,24.0
1979-07-02 13:50:32.780 ,2,1,0.,24.0,0.,24.0,0.,24.0,0.,24.0
1979-07-02 13:50:56.780 ,2,0,0.,24.0,0.,24.0,0.,24.0,0.,24.0
1979-07-02 13:51:20.780 ,3,1,0.,24.0,0.,24.0,0.,24.0,0.,24.0
1979-07-02 13:51:44.780 ,3,0,0.,24.0,0.,24.0,0.,24.0,0.,24.0
1979-07-02 13:52:08.780 ,4,1,0.,24.0,0.,24.0,0.,24.0,0.,24.0
1979-07-02 13:52:32.780 ,4,0,0.,24.0,0.,24.0,0.,24.0,0.,24.0
1979-07-02 13:52:56.780 ,5,1,0.,24.0,0.,24.0,0.,24.0,0.,24.0
1979-07-02 13:53:20.780 ,5,0,0.,24.0,0.,24.0,0.,24.0,0.,24.0
1979-07-02 13:53:44.780 ,6,1,0.,24.0,0.,24.0,0.,24.0,0.,24.0
1979-07-02 13:54:08.780 ,6,0,0.,24.0,0.,24.0,0.,24.0,0.,24.0
1979-07-02 13:54:32.780 ,7,0,0.,24.0,0.,24.0,0.,24.0,0.,24.0
1979-07-02 13:54:56.780 ,7,0,0.,24.0,0.,24.0,0.,24.0,0.,24.0
1979-07-02 13:55:20.780 ,5,1,0.,24.0,0.,24.0,0.,24.0,0.,24.0
1979-07-02 13:55:44.780 ,1,1,0.,24.0,0.,24.0,0.,24.0,0.,24.0
1979-07-02 13:56:08.780 ,2,1,0.,24.0,0.,24.0,0.,24.0,0.,24.0
1979-07-02 13:56:32.780 ,6,1,0.,24.0,0.,24.0,0.,24.0,0.,24.0
1979-07-02 13:56:56.780 ,5,1,0.,24.0,0.,24.0,0.,24.0,0.,24.0
1979-07-02 13:57:20.780 ,1,1,0.,24.0,0.,24.0,0.,24.0,0.,24.0
1979-07-02 13:57:44.780 ,2,1,0.,24.0,0.,24.0,0.,24.0,0.,24.0
1979-07-02 13:58:08.780 ,6,1,0.,24.0,0.,24.0,0.,24.0,0.,24.0
1979-07-02 13:58:32.780 ,5,1,0.,24.0,0.,24.0,0.,24.0,0.,24.0
1979-07-02 13:58:56.780 ,1,1,0.,24.0,0.,24.0,0.,24.0,0.,24.0
1979-07-02 13:59:20.780 ,2,1,0.,24.0,0.,24.0,0.,24.0,0.,24.0
1979-07-02 13:59:44.780 ,6,1,0.,24.0,0.,24.0,0.,24.0,0.,24.0
1979-07-02 14:00:08.790 ,5,1,0.,24.0,0.,24.0,0.,24.0,0.,24.0
1979-07-02 14:00:32.790 ,1,1,0.,24.0,0.,24.0,0.,24.0,0.,24.0
1979-07-02 14:00:56.790 ,2,1,0.,24.0,0.,24.0,0.,24.0,0.,24.0
1979-07-02 14:01:20.790 ,6,1,0.,24.0,0.,24.0,0.,24.0,0.,24.0
1979-07-02 14:01:44.790 ,5,1,0.,24.0,0.,24.0,0.,24.0,0.,24.0
1979-07-02 14:02:08.790 ,1,1,0.,24.0,0.,24.0,0.,24.0,0.,24.0
1979-07-02 14:02:32.790 ,2,1,0.,24.0,0.,24.0,0.,24.0,0.,24.0
1979-07-02 14:02:56.790 ,6,1,0.,24.0,0.,24.0,0.,24.0,0.,24.0
1979-07-02 14:03:20.790 ,5,1,0.,24.0,0.,24.0,0.,24.0,0.,24.0
1979-07-02 14:03:44.790 ,1,1,0.,24.0,0.,24.0,0.,24.0,0.,24.0
1979-07-02 14:04:08.780 ,2,1,0.,24.0,0.,24.0,0.,24.0,0.,24.0
1979-07-02 14:04:32.790 ,6,1,0.,24.0,0.,24.0,0.,24.0,0.,24.0
1979-07-02 14:04:56.790 ,5,1,0.,24.0,0.,24.0,0.,24.0,0.,24.0
1979-07-02 14:05:20.790 ,1,1,1.,24.0,0.,24.0,0.,24.0,0.,24.0
1979-07-02 14:05:44.790 ,0,0,0.,24.0,0.,24.0,0.,24.0,0.,24.0
1979-07-02 14:06:08.790 ,0,0,0.,24.0,0.,24.0,0.,24.0,0.,24.0
1979-07-02 14:06:32.790 ,5,1,0.,24.0,0.,24.0,0.,24.0,0.,24.0
1979-07-02 14:06:56.790 ,5,0,0.,24.0,0.,24.0,0.,24.0,0.,24.0
1979-07-02 14:07:20.790 ,4,1,0.,24.0,0.,24.0,0.,24.0,0.,24.0
1979-07-02 14:07:44.790 ,4,0,0.,24.0,0.,24.0,0.,24.0,0.,24.0
1979-07-02 14:08:08.790 ,3,1,0.,24.0,0.,24.0,0.,24.0,0.,24.0
1979-07-02 14:08:32.790 ,3,0,0.,24.0,0.,24.0,0.,24.0,0.,24.0
1979-07-02 14:08:56.790 ,2,1,0.,24.0,0.,24.0,0.,24.0,0.,24.0
1979-07-02 14:09:20.790 ,2,0,0.,24.0,0.,24.0,0.,24.0,0.,24.0
1979-07-02 14:09:44.790 ,1,1,0.,24.0,0.,24.0,0.,24.0,0.,24.0
1979-07-02 14:10:08.790 ,1,0,0.,24.0,0.,24.0,0.,24.0,0.,24.0
1979-07-02 14:10:32.780 ,0,1,0.,24.0,0.,24.0,0.,24.0,0.,24.0
1979-07-02 14:10:56.780 ,0,0,0.,24.0,0.,24.0,0.,24.0,0.,24.0
1979-07-02 14:11:20.780 ,0,1,0.,24.0,0.,24.0,0.,24.0,0.,24.0
1979-07-02 14:11:44.780 ,0,0,0.,24.0,0.,24.0,0.,24.0,0.,24.0
1979-07-02 14:12:08.780 ,1,1,0.,24.0,0.,24.0,0.,24.0,0.,24.0
1979-07-02 14:12:32.780 ,1,0,0.,24.0,0.,24.0,0.,24.0,0.,24.0
1979-07-02 14:12:56.780 ,2,1,0.,24.0,0.,24.0,0.,24.0,0.,24.0
1979-07-02 14:13:20.780 ,2,0,0.,24.0,0.,24.0,0.,24.0,0.,24.0
1979-07-02 14:13:44.780 ,3,1,0.,24.0,0.,24.0,0.,24.0,0.,24.0
1979-07-02 14:14:08.780 ,3,0,0.,24.0,0.,24.0,0.,24.0,0.,24.0
1979-07-02 14:14:32.780 ,4,1,0.,24.0,0.,24.0,0.,24.0,0.,24.0
1979-07-02 14:14:56.780 ,4,0,0.,24.0,0.,24.0,0.,24.0,0.,24.0
1979-07-02 14:15:20.780 ,5,1,0.,24.0,0.,24.0,0.,24.0,0.,24.0
1979-07-02 14:15:44.780 ,5,0,0.,24.0,0.,24.0,0.,24.0,0.,24.0
1979-07-02 14:16:08.780 ,6,1,0.,24.0,0.,24.0,0.,24.0,0.,24.0
1979-07-02 14:16:32.780 ,6,0,0.,24.0,0.,24.0,0.,24.0,0.,24.0
1979-07-02 14:16:56.780 ,7,1,0.,24.0,0.,24.0,0.,24.0,0.,24.0
1979-07-02 14:17:20.780 ,7,0,0.,24.0,0.,24.0,0.,24.0,0.,24.0
1979-07-02 14:17:44.780 ,7,1,0.,24.0,0.,24.0,0.,24.0,0.,24.0
1979-07-02 14:18:08.780 ,7,0,0.,24.0,0.,24.0,0.,24.0,0.,24.0
1979-07-02 14:18:32.780 ,6,1,0.,24.0,0.,24.0,0.,24.0,0.,24.0
1979-07-02 14:18:56.780 ,6,0,0.,24.0,0.,24.0,0.,24.0,0.,24.0
1979-07-02 14:19:20.780 ,5,1,0.,24.0,0.,24.0,0.,24.0,0.,24.0
1979-07-02 14:19:44.780 ,5,0,0.,24.0,0.,24.0,0.,24.0,0.,24.0
1979-07-02 14:20:08.780 ,4,1,0.,24.0,0.,24.0,0.,24.0,0.,24.0
1979-07-02 14:20:32.780 ,4,0,0.,24.0,0.,24.0,0.,24.0,0.,24.0
1979-07-02 14:20:56.780 ,3,1,0.,24.0,0.,24.0,0.,24.0,0.,24.0
1979-07-02 14:21:20.780 ,3,0,0.,24.0,0.,24.0,0.,24.0,0.,24.0
1979-07-02 14:21:44.780 ,2,1,0.,24.0,0.,24.0,0.,24.0,0.,24.0
1979-07-02 14:22:08.780 ,2,0,0.,24.0,0.,24.0,0.,24.0,0.,24.0
1979-07-02 14:22:32.780 ,1,1,0.,24.0,0.,24.0,0.,24.0,0.,24.0
1979-07-02 14:22:56.780 ,1,0,0.,24.0,0.,24.0,0.,24.0,0.,24.0
1979-07-02 14:23:20.780 ,0,1,0.,24.0,0.,24.0,0.,24.0,0.,24.0
1979-07-02 14:23:44.780 ,0,0,0.,24.0,0.,24.0,0.,24.0,0.,24.0
1979-07-02 14:24:08.780 ,0,1,0.,24.0,0.,24.0,0.,24.0,0.,24.0
1979-07-02 14:24:32.780 ,0,0,0.,24.0,0.,24.0,0.,24.0,0.,24.0
1979-07-02 14:24:56.780 ,1,1,0.,24.0,0.,24.0,0.,24.0,0.,24.0
1979-07-02 14:25:20.780 ,1,0,0.,24.0,0.,24.0,0.,24.0,0.,24.0
1979-07-02 14:25:44.780 ,2,1,0.,24.0,0.,24.0,0.,24.0,0.,24.0
1979-07-02 14:26:08.780 ,2,0,0.,24.0,0.,24.0,0.,24.0,0.,24.0
1979-07-02 14:26:32.780 ,3,1,0.,24.0,0.,24.0,0.,24.0,0.,24.0
1979-07-02 14:26:56.780 ,3,0,0.,24.0,0.,24.0,0.,24.0,0.,24.0
1979-07-02 14:27:20.780 ,4,1,0.,24.0,0.,24.0,0.,24.0,0.,24.0
1979-07-02 14:27:44.780 ,4,0,0.,24.0,0.,24.0,0.,24.0,0.,24.0
1979-07-02 14:28:08.780 ,5,1,0.,24.0,0.,24.0,0.,24.0,0.,24.0
1979-07-02 14:28:32.780 ,5,0,0.,24.0,0.,24.0,0.,24.0,0.,24.0
1979-07-02 14:28:56.780 ,6,1,0.,24.0,0.,24.0,0.,24.0,0.,24.0
1979-07-02 14:29:20.780 ,6,0,0.,24.0,0.,24.0,0.,24.0,0.,24.0
1979-07-02 14:29:44.780 ,7,1,0.,24.0,0.,24.0,0.,24.0,0.,24.0
1979-07-02 14:30:08.780 ,7,0,0.,24.0,0.,24.0,0.,24.0,0.,24.0
1979-07-02 14:30:32.780 ,7,1,0.,24.0,0.,24.0,0.,24.0,0.,24.0
1979-07-02 14:30:56.780 ,7,0,0.,24.0,0.,24.0,0.,24.0,0.,24.0
1979-07-02 14:31:20.780 ,6,1,0.,24.0,0.,24.0,0.,24.0,0.,24.0
1979-07-02 14:31:44.780 ,6,0,0.,24.0,0.,24.0,0.,24.0,0.,24.0
1979-07-02 14:32:08.780 ,5,1,0.,24.0,0.,24.0,0.,24.0,0.,24.0
1979-07-02 14:32:32.780 ,5,0,0.,24.0,0.,24.0,0.,24.0,0.,24.0
1979-07-02 14:32:56.780 ,4,1,0.,24.0,0.,24.0,0.,24.0,0.,24.0
1979-07-02 14:33:20.780 ,4,0,0.,24.0,0.,24.0,0.,24.0,0.,24.0
1979-07-02 14:33:44.780 ,3,1,0.,24.0,0.,24.0,0.,24.0,0.,24.0
1979-07-02 14:34:08.780 ,3,0,0.,24.0,0.,24.0,0.,24.0,0.,24.0
1979-07-02 14:34:32.780 ,2,1,0.,24.0,0.,24.0,0.,24.0,0.,24.0